W9SDA Weather Reports


time (UTC)temp
C
wind
direction
speed
KPH
gust
KPH
rain 1hr
cm
rain 24hr
cm
rain mn
cm
humidity
%
barometer
mb
20260906131607 21 123 1.6 9.7 0.00 0.00 0.00 94 1017.3
20260906130107 21 225 0.0 8.0 0.00 0.00 0.00 95 1017.1
20260906124602 21 117 3.2 9.7 0.00 0.00 0.00 94 1016.9
20260906123059 21 192 3.2 9.7 0.00 0.00 0.00 94 1016.9
20260906121605 21 115 3.2 6.4 0.00 0.00 0.00 94 1016.9
20260906120107 21 127 0.0 9.7 0.00 0.00 0.00 94 1016.7
20260906114604 21 0 0.0 8.0 0.00 0.00 0.00 94 1016.6
20260906113101 21 0 0.0 4.8 0.00 0.00 0.00 94 1016.2
20260906111559 21 115 0.0 3.2 0.00 0.00 0.00 94 1016.0
20260906104605 21 0 0.0 3.2 0.00 0.00 0.00 93 1015.6
20260906103102 21 0 0.0 3.2 0.00 0.00 0.00 93 1015.6
20260906101600 21 120 0.0 3.2 0.00 0.00 0.00 93 1015.5
20260906100105 21 0 0.0 4.8 0.00 0.00 0.00 93 1015.5
20260906094611 21 0 0.0 4.8 0.00 0.00 0.00 92 1015.3
20260906093132 22 0 0.0 4.8 0.00 0.00 0.00 92 1015.1
20260906091611 22 0 0.0 3.2 0.00 0.00 0.00 92 1015.1
20260906084701 22 0 0.0 4.8 0.00 0.00 0.00 91 1015.1
20260906083052 23 119 0.0 4.8 0.00 0.00 0.00 91 1015.1
20260906081550 23 0 0.0 3.2 0.00 0.00 0.00 89 1015.0
20260906074559 23 269 1.6 9.7 0.00 0.00 0.00 90 1014.9
20260906073053 23 0 0.0 8.0 0.00 0.00 0.00 90 1014.9
20260906071552 23 0 1.6 4.8 0.00 0.00 0.00 91 1015.1
20260906070059 24 0 0.0 4.8 0.00 0.00 0.00 91 1015.0
20260906064551 24 0 0.0 3.2 0.00 0.00 0.00 90 1015.0
20260906063101 25 0 0.0 3.2 0.00 0.00 0.00 90 1015.0
20260906061605 25 0 0.0 0.0 0.00 0.00 0.00 89 1014.9
20260906060130 25 0 0.0 3.2 0.00 0.00 0.00 89 1015.0
20260906054610 25 0 0.0 9.7 0.00 0.00 0.00 89 1014.9
20260906053057 26 126 1.6 8.0 0.00 0.00 0.00 89 1014.9
20260906051602 26 0 0.0 11.3 0.00 0.00 0.00 90 1014.8
20260906050108 25 138 3.2 11.3 0.00 0.00 0.00 92 1014.7
20260906044604 25 117 0.0 1.6 0.00 0.00 0.00 92 1014.6
20260906043056 25 0 0.0 0.0 0.00 0.00 0.00 92 1014.4
20260906041600 25 0 0.0 0.0 0.00 0.00 0.00 92 1014.3
20260906040107 25 0 0.0 0.0 0.00 0.00 0.00 92 1014.0
20260906034603 25 0 0.0 0.0 0.00 0.00 0.00 91 1014.0
20260906033056 25 0 0.0 0.0 0.00 0.00 0.00 91 1013.9
20260906031602 25 0 0.0 0.0 0.00 0.00 0.00 91 1013.8
20260906030104 25 0 0.0 0.0 0.00 0.00 0.00 90 1013.8
20260906024600 25 0 0.0 0.0 0.00 0.00 0.00 90 1013.6
20260906023102 25 0 0.0 0.0 0.00 0.00 0.00 90 1013.4
20260906021601 25 0 0.0 0.0 0.00 0.00 0.00 89 1013.3
20260906020058 26 0 0.0 3.2 0.00 0.00 0.00 89 1013.0
20260906014633 26 0 0.0 0.0 0.00 0.00 0.00 88 1012.8
20260906013102 26 0 0.0 0.0 0.00 0.00 0.00 88 1012.8
20260906011605 26 0 0.0 0.0 0.00 0.00 0.00 87 1012.7
20260906010058 27 0 0.0 0.0 0.00 0.00 0.00 84 1012.5
20260906004606 27 0 0.0 0.0 0.00 0.00 0.00 81 1012.4
20260906003110 27 0 0.0 0.0 0.00 0.00 0.00 80 1012.4
20260906001603 28 0 0.0 0.0 0.00 0.00 0.00 80 1012.4
20260906000058 28 0 0.0 0.0 0.00 0.00 0.00 79 1012.5
20260905234558 28 0 0.0 4.8 0.00 0.00 0.00 78 1012.4
20260905233103 28 0 0.0 4.8 0.00 0.00 0.00 73 1012.4
20260905231602 28 0 0.0 6.4 0.00 0.00 0.00 71 1012.3
20260905230108 29 186 3.2 8.0 0.00 0.00 0.00 66 1012.6
20260905224614 31 323 3.2 12.9 0.00 0.00 0.00 65 1012.9
20260905223101 33 105 3.2 12.9 0.00 0.00 0.00 56 1012.5
20260905221616 35 45 1.6 8.0 0.00 0.00 0.00 51 1012.5
20260905220056 36 218 0.0 4.8 0.00 0.00 0.00 49 1012.5
20260905214603 37 89 1.6 14.5 0.00 0.00 0.00 49 1012.1
20260905213106 37 299 1.6 19.3 0.00 0.00 0.00 51 1012.0
20260905211603 37 346 0.0 8.0 0.00 0.00 0.00 48 1012.0
20260905210100 37 31 1.6 12.9 0.00 0.00 0.00 45 1012.4
20260905204603 36 351 1.6 8.0 0.00 0.00 0.00 49 1012.3
20260905203105 36 352 0.0 4.8 0.00 0.00 0.00 51 1012.5
20260905201623 37 349 4.8 16.1 0.00 0.00 0.00 48 1012.5
20260905200103 36 66 1.6 11.3 0.00 0.00 0.00 51 1012.8
20260905194556 36 19 3.2 8.0 0.00 0.00 0.00 48 1013.0
20260905193104 36 360 1.6 8.0 0.00 0.00 0.00 51 1013.0
20260905191559 37 243 1.6 14.5 0.00 0.00 0.00 44 1013.2
20260905184559 37 341 0.0 6.4 0.00 0.00 0.00 49 1013.4
20260905183052 37 143 3.2 9.7 0.00 0.00 0.00 49 1013.6
20260905181612 36 189 3.2 14.5 0.00 0.00 0.00 52 1013.9
20260905174602 35 5 3.2 11.3 0.00 0.00 0.00 54 1013.9
20260905173104 35 352 1.6 11.3 0.00 0.00 0.00 59 1014.0
20260905171602 34 97 1.6 9.7 0.00 0.00 0.00 61 1014.1
20260905170100 34 350 3.2 14.5 0.00 0.00 0.00 57 1014.4
20260905164554 33 35 4.8 14.5 0.00 0.00 0.00 61 1014.6
20260905163101 33 355 3.2 8.0 0.00 0.00 0.00 63 1014.8
20260905161604 32 5 3.2 12.9 0.00 0.00 0.00 63 1014.9
20260905160055 32 337 3.2 9.7 0.00 0.00 0.00 65 1015.0
20260905154619 32 5 4.8 11.3 0.00 0.00 0.00 65 1015.1
20260905153059 31 355 4.8 11.3 0.00 0.00 0.00 67 1015.1
20260905151603 31 23 1.6 12.9 0.00 0.00 0.00 68 1015.0
20260905150055 30 355 4.8 9.7 0.00 0.00 0.00 69 1015.0
20260905144600 30 32 3.2 12.9 0.00 0.00 0.00 72 1014.8
20260905143100 29 333 4.8 9.7 0.00 0.00 0.00 73 1014.8
20260905141600 29 5 3.2 8.0 0.00 0.00 0.00 74 1014.9
20260905140106 28 15 3.2 6.4 0.00 0.00 0.00 76 1014.9
20260905134601 27 15 3.2 6.4 0.00 0.00 0.00 81 1014.9
20260905133058 26 0 0.0 1.6 0.00 0.00 0.00 90 1014.8